Wind_Speed
3 3 3 4 3 3 4 5 5 6 6 7 7 7 7 8 7 7 8 8 8 8 8 9 9 10 10 10 10 11 11 11 11 10 10 10 10 9 9 9 9 9 9 9 8 7 7 7 7
3 3 3 4 4 3 4 5 5 5 6 6 6 6 6 6 6 7 7 8 8 8 8 9 9 10 10 11 11 11 12 12 12 12 11 11 11 10 10 10 10 10 10 10 9 9 9 8 7
2 3 3 4 4 4 5 5 5 5 5 6 5 5 5 5 5 6 7 7 7 7 8 8 9 10 10 10 11 12 12 12 12 12 12 12 11 11 11 11 11 11 11 10 10 10 10 10 9
2 3 4 3 4 4 5 5 5 5 5 5 5 5 5 5 5 6 6 6 6 7 7 7 8 9 10 10 11 11 11 12 12 12 12 12 12 12 11 11 11 11 11 10 10 11 11 11 10
2 3 3 3 3 4 4 5 5 4 4 5 5 5 5 5 5 6 6 6 6 6 6 7 7 8 8 9 10 10 10 11 12 13 12 12 12 12 12 12 12 11 11 11 11 11 11 11 11
2 2 3 3 4 4 4 5 5 4 4 5 5 5 5 5 5 5 6 6 6 6 6 6 7 7 7 7 9 9 9 10 11 12 12 13 13 13 12 12 12 12 12 12 11 11 11 12 12
2 2 3 3 4 4 5 5 5 5 5 5 5 5 5 5 5 6 6 6 6 6 6 6 6 6 6 7 8 8 8 9 10 11 12 13 13 12 12 12 12 12 13 13 12 12 12 11 12
2 3 3 4 4 4 4 4 5 5 5 5 6 5 5 5 5 6 6 6 6 6 5 5 5 5 6 6 6 7 8 9 9 11 11 12 12 12 12 12 12 12 12 12 12 12 12 11 11
2 2 2 3 4 4 4 4 5 5 5 5 6 6 5 5 5 6 6 6 6 5 5 5 5 5 6 6 6 6 7 8 8 9 10 10 11 11 11 11 11 11 11 12 12 12 11 12 12
2 2 3 3 4 4 5 5 5 6 6 6 5 5 6 6 6 6 5 5 5 5 5 5 5 5 6 6 6 6 6 7 7 8 9 11 11 11 11 10 10 11 11 11 11 12 12 12 12
3 3 3 3 4 5 5 6 6 6 6 6 6 6 6 6 6 5 5 5 5 5 5 5 6 6 6 6 6 6 6 6 7 7 8 9 10 11 10 10 11 11 11 11 12 12 13 13 13
4 4 4 4 4 5 5 6 6 6 7 7 7 6 6 6 6 5 5 5 5 5 6 6 6 6 6 6 6 6 6 6 7 7 7 8 9 10 10 10 11 12 12 12 12 12 13 13 13
5 5 5 5 5 5 5 6 6 7 7 7 7 7 6 6 5 5 5 5 5 5 6 6 6 7 7 7 7 7 6 6 7 7 7 8 8 8 8 10 10 11 12 12 12 12 12 13 13
5 6 6 6 6 6 7 6 6 7 7 7 7 7 6 6 6 6 5 5 5 5 6 6 7 7 7 7 7 6 6 6 7 7 7 8 8 8 9 9 10 10 11 12 12 12 13 13 13
6 6 6 6 7 7 7 6 6 7 8 7 7 7 6 6 6 6 6 6 6 6 6 6 7 7 7 7 7 7 6 7 7 8 8 8 8 8 9 10 10 11 11 12 12 12 13 13 13
6 7 7 7 7 7 7 7 7 7 8 8 7 7 7 6 6 6 6 6 6 6 6 7 7 7 7 7 7 7 7 7 7 8 8 8 8 9 9 10 10 10 11 12 12 12 12 12 12
7 7 8 8 8 8 8 8 8 8 9 9 8 8 7 7 6 6 6 6 6 6 6 6 7 7 7 7 7 7 7 7 7 7 7 8 8 9 9 9 10 10 10 11 11 12 12 12 12
8 8 8 8 9 10 9 8 8 9 10 10 9 8 8 7 7 7 6 7 7 7 7 6 6 7 7 7 7 7 7 7 7 7 7 7 8 8 9 9 10 10 10 10 11 11 12 12 11
8 9 8 9 10 10 10 9 9 9 10 10 9 9 8 8 8 7 7 7 7 7 8 7 7 7 8 8 8 8 8 7 7 8 8 7 8 9 9 9 10 9 10 10 11 11 11 11 12
9 10 10 10 10 10 10 10 10 10 10 10 10 10 9 9 8 8 8 8 9 9 9 9 8 8 9 9 9 9 9 9 9 9 9 8 9 9 10 10 10 10 10 11 11 11 10 11 12
10 10 10 10 10 10 10 10 9 10 10 10 11 11 10 10 9 9 9 9 9 9 9 9 9 9 9 9 9 9 9 9 9 9 9 9 10 10 10 11 11 11 11 12 12 11 12 12 13
10 10 10 10 11 10 9 10 10 11 11 11 11 11 11 10 10 11 11 10 10 10 10 10 10 9 9 9 8 8 8 9 9 9 10 10 10 10 11 12 12 12 12 12 13 13 13 13 13
9 9 10 10 11 10 10 11 10 13 13 13 12 12 12 11 12 12 12 11 11 11 11 10 10 10 10 9 9 9 9 9 10 10 10 10 11 11 12 12 12 12 13 13 13 14 14 14 14
10 10 10 10 11 10 9 12 13 13 14 14 14 13 13 12 13 13 13 13 13 12 12 12 11 11 10 10 10 10 10 10 11 11 11 12 12 12 12 12 12 13 13 13 13 14 14 14 15
10 10 10 10 10 10 10 13 15 14 14 15 15 15 14 13 14 14 14 14 14 13 13 13 12 11 11 11 11 11 11 11 12 11 11 12 12 12 12 13 14 14 14 14 14 14 14 14 15
11 10 10 10 10 11 12 13 14 15 15 15 15 15 15 14 15 15 15 14 14 14 14 13 13 12 12 12 12 12 12 12 11 12 12 12 13 13 13 14 14 14 14 14 14 14 14 14 15
12 12 12 13 12 13 12 14 15 16 16 16 15 15 16 16 15 16 16 15 14 14 14 14 14 14 14 14 13 13 13 13 12 12 13 13 14 14 15 15 14 14 14 14 14 14 14 15 15
14 14 14 14 14 14 13 14 16 16 17 17 16 16 16 17 17 17 17 16 16 15 15 15 15 15 15 15 15 14 14 14 13 13 14 14 14 15 15 15 15 15 15 15 15 15 15 15 16
15 15 16 16 16 16 15 16 17 18 19 19 18 17 17 17 17 17 17 18 18 17 17 17 16 16 16 15 15 15 15 15 15 15 15 15 15 15 15 16 16 16 16 16 16 17 17 17 17
18 17 18 18 17 18 18 18 18 20 20 20 20 19 18 19 18 18 18 19 18 18 18 17 17 17 17 17 17 17 17 17 17 17 17 17 17 17 17 17 17 18 18 18 18 18 18 18 18
Wind_Direction
339 337 334 329 326 311 311 306 299 296 288 284 282 280 279 275 270 265 260 258 257 256 255 254 253 250 249 247 247 249 249 246 243 241 241 239 236 233 230 229 229 224 222 219 218 216 216 213 210
339 330 330 325 322 321 318 312 307 300 290 287 286 287 288 279 271 269 266 263 260 260 258 256 255 252 250 249 248 252 252 250 246 245 245 243 240 239 235 236 236 231 228 226 223 223 224 222 220
341 328 331 326 320 321 320 314 312 303 295 290 289 293 293 282 275 273 270 268 267 264 262 259 256 254 252 252 252 256 254 250 247 245 245 244 242 240 239 238 237 236 232 230 228 228 225 228 228
335 331 331 335 328 326 321 318 315 306 299 296 293 296 293 286 280 276 274 272 269 266 265 264 261 257 254 254 255 257 254 250 244 241 242 243 244 241 240 241 237 237 237 237 232 232 231 232 233
329 337 341 342 343 334 327 323 318 313 309 303 299 299 297 295 288 282 279 276 273 271 268 267 264 262 258 257 257 256 254 250 243 238 239 242 242 241 241 243 243 242 241 239 235 234 237 239 238
329 338 344 356 354 340 331 328 326 320 316 311 307 303 299 296 294 288 284 281 280 273 271 268 267 269 265 260 260 256 251 245 239 237 238 240 241 242 245 245 245 246 245 243 239 239 244 245 246
325 336 348 353 346 340 337 335 329 327 324 318 318 315 306 300 298 295 289 286 285 280 278 275 273 271 268 267 265 260 251 245 241 241 241 242 243 244 245 245 245 245 245 244 244 242 245 247 250
332 334 349 348 343 345 344 339 332 330 326 320 318 319 315 308 301 296 291 288 286 283 279 277 277 278 273 270 264 258 253 249 246 244 245 244 244 244 246 245 244 245 245 246 246 245 249 251 251
337 336 339 345 343 344 345 340 334 332 329 323 322 319 317 310 303 295 291 290 289 286 284 286 286 288 286 278 271 264 258 252 249 247 246 244 243 243 244 247 249 245 245 246 249 249 250 252 253
335 334 333 340 339 342 343 338 335 337 332 327 324 320 316 311 304 299 293 291 292 290 289 293 293 294 291 283 279 274 268 258 255 253 250 246 245 246 246 249 251 250 249 250 250 248 251 252 255
318 330 335 337 331 333 332 331 331 334 333 330 324 320 317 311 303 298 294 290 292 293 294 295 296 296 292 289 287 280 274 264 260 257 254 253 250 249 249 252 253 251 251 253 255 251 250 253 256
314 320 318 322 322 325 323 323 324 326 328 328 324 324 321 313 304 296 291 291 290 291 295 298 301 304 299 291 287 282 275 267 262 260 257 259 255 252 250 252 255 256 258 256 257 257 255 255 258
307 308 308 312 313 316 317 318 320 320 322 323 322 323 320 318 313 307 299 296 291 292 296 298 299 302 302 296 288 284 279 270 264 263 263 261 261 257 258 258 258 260 262 260 260 260 259 260 259
297 302 307 311 310 312 314 313 316 316 317 316 316 317 317 318 315 312 307 301 297 292 294 297 299 302 304 300 291 285 280 274 268 266 266 265 263 263 269 268 264 264 263 264 263 260 261 260 260
298 302 307 311 310 310 308 310 315 315 315 315 312 312 312 313 309 306 303 300 297 293 294 297 298 300 303 303 293 285 281 276 273 272 269 266 266 267 271 272 269 269 266 267 264 262 262 262 262
299 301 302 304 301 301 301 309 315 313 314 315 313 311 310 309 305 304 302 302 300 296 296 299 301 298 301 301 294 286 284 279 276 273 269 268 268 270 272 275 276 276 274 271 268 267 262 262 265
299 301 301 299 297 294 296 299 304 306 307 309 311 309 306 305 302 303 300 300 298 297 299 300 301 298 298 297 292 287 284 281 277 272 270 269 269 272 275 276 277 277 275 271 269 270 267 264 266
298 297 296 297 293 292 293 297 300 302 302 304 304 305 303 302 300 303 304 302 300 299 300 300 298 300 300 298 294 290 287 281 274 270 268 267 270 274 277 277 277 277 276 273 269 270 267 266 266
288 284 280 284 287 287 290 295 300 303 299 302 302 300 297 296 299 301 303 302 300 299 299 300 298 298 298 295 293 289 287 283 278 275 272 270 272 278 281 279 278 277 277 275 273 272 270 268 267
281 281 281 277 279 282 283 290 296 300 302 302 300 298 294 292 293 296 296 296 297 299 296 296 297 295 295 293 289 287 284 281 277 276 275 273 276 280 281 281 279 277 277 276 276 272 272 274 272
272 275 279 279 281 281 285 287 293 296 299 300 300 300 296 291 288 290 291 293 296 296 294 292 293 293 293 292 287 285 284 282 278 276 273 273 276 280 280 281 281 279 279 277 274 271 270 272 275
271 271 279 280 280 283 287 284 290 298 296 299 297 296 293 288 285 286 290 291 292 292 292 292 292 293 293 293 291 288 286 281 280 278 275 274 276 279 278 280 280 279 278 276 273 269 270 272 274
275 274 278 282 283 282 284 287 289 291 295 296 295 293 289 284 282 284 285 286 286 289 289 290 291 292 290 287 288 288 288 284 281 280 279 274 276 280 279 280 277 277 279 279 275 271 270 271 272
275 275 280 282 281 280 285 285 281 281 291 292 292 290 285 283 283 283 282 282 283 285 285 285 287 288 286 285 285 286 285 285 283 282 280 277 277 280 280 279 279 279 280 280 278 275 272 271 271
271 275 280 283 290 297 294 282 280 283 284 286 288 287 284 282 281 281 281 281 282 282 283 285 287 286 284 283 283 285 284 286 286 284 282 281 280 281 280 281 282 281 280 280 279 277 275 275 274
274 271 274 276 275 275 277 278 282 284 283 283 282 282 283 281 282 282 282 282 281 281 281 284 286 285 282 281 282 284 285 286 286 284 283 283 282 283 281 281 282 282 283 282 281 280 278 277 277
269 264 264 267 270 274 277 276 279 280 281 282 282 280 281 281 280 280 280 279 279 279 280 281 281 282 282 281 281 281 283 285 286 285 285 285 285 284 282 282 281 281 281 282 281 281 280 280 280
267 263 262 265 267 270 271 277 282 277 281 281 282 281 281 281 279 280 281 278 277 277 278 278 280 281 281 281 280 281 281 283 285 286 286 287 287 285 283 281 280 281 281 281 279 280 279 280 281
266 262 263 262 264 269 271 271 275 278 280 279 282 282 282 280 279 278 279 278 276 275 273 275 279 280 280 280 279 278 279 280 281 284 287 286 286 286 284 281 280 279 280 280 280 279 278 279 280
267 264 263 263 263 265 270 274 278 278 279 278 278 281 282 281 279 278 276 275 275 275 276 276 277 279 279 279 278 278 279 280 281 282 285 285 284 284 282 281 280 280 280 281 280 279 279 279 278
Height
5858 5857 5857 5858 5858 5857 5856 5856 5855 5855 5856 5855 5855 5855 5855 5856 5857 5860 5858 5857 5858 5859 5860 5860 5861 5861 5862 5862 5863 5863 5863 5864 5864 5865 5866 5867 5867 5868 5869 5870 5871 5872 5872 5873 5874 5874 5875 5876 5877
5858 5857 5858 5858 5857 5856 5856 5855 5855 5855 5855 5854 5854 5854 5855 5855 5855 5856 5855 5856 5857 5858 5858 5858 5859 5859 5860 5860 5861 5861 5861 5861 5862 5863 5864 5865 5866 5867 5868 5869 5870 5870 5871 5872 5873 5874 5875 5876 5876
5857 5857 5857 5857 5856 5855 5855 5854 5854 5854 5854 5854 5854 5854 5854 5854 5854 5854 5854 5855 5855 5856 5856 5857 5857 5857 5858 5858 5858 5858 5858 5858 5860 5861 5862 5864 5865 5866 5866 5867 5868 5869 5869 5870 5871 5872 5874 5875 5875
5857 5857 5857 5856 5855 5855 5854 5854 5854 5853 5853 5853 5853 5853 5853 5853 5853 5853 5853 5853 5854 5855 5855 5855 5855 5855 5856 5856 5856 5856 5856 5856 5857 5859 5860 5862 5863 5864 5865 5866 5866 5867 5868 5869 5870 5871 5872 5873 5874
5857 5857 5856 5855 5854 5854 5854 5853 5853 5853 5853 5852 5852 5852 5852 5853 5852 5852 5852 5853 5853 5854 5854 5854 5854 5854 5854 5854 5854 5854 5854 5854 5855 5857 5859 5860 5861 5862 5863 5864 5865 5866 5867 5868 5869 5870 5871 5872 5873
5857 5856 5856 5855 5854 5854 5853 5853 5853 5853 5852 5852 5852 5852 5852 5852 5852 5852 5852 5852 5852 5852 5852 5852 5852 5852 5853 5853 5853 5853 5853 5853 5853 5855 5857 5858 5859 5860 5862 5863 5864 5865 5865 5866 5867 5868 5869 5870 5871
5857 5856 5855 5854 5854 5854 5854 5853 5853 5852 5852 5852 5851 5852 5851 5851 5851 5851 5851 5851 5851 5851 5851 5851 5851 5851 5851 5851 5851 5851 5852 5852 5853 5854 5855 5856 5857 5859 5860 5861 5862 5863 5864 5865 5865 5866 5867 5868 5869
5856 5856 5854 5854 5854 5854 5853 5853 5852 5852 5852 5851 5851 5851 5851 5851 5850 5850 5850 5850 5850 5850 5850 5850 5850 5850 5850 5850 5850 5850 5851 5851 5852 5853 5854 5854 5856 5857 5858 5859 5860 5861 5862 5863 5864 5865 5865 5866 5867
5855 5857 5855 5854 5854 5854 5853 5853 5852 5852 5851 5851 5850 5850 5850 5850 5850 5849 5849 5849 5849 5849 5849 5849 5849 5849 5849 5849 5849 5849 5849 5850 5851 5851 5852 5853 5854 5855 5856 5857 5858 5859 5860 5861 5862 5863 5864 5864 5865
5855 5855 5855 5854 5854 5853 5853 5852 5852 5851 5851 5850 5850 5850 5849 5849 5849 5849 5848 5848 5848 5848 5848 5848 5848 5848 5848 5848 5848 5848 5848 5849 5849 5850 5851 5851 5852 5853 5854 5855 5856 5857 5858 5859 5860 5861 5862 5862 5863
5855 5855 5854 5853 5853 5853 5852 5852 5851 5851 5851 5850 5849 5849 5849 5848 5848 5848 5848 5848 5847 5847 5847 5847 5847 5847 5847 5847 5847 5847 5847 5848 5848 5849 5849 5850 5851 5852 5853 5854 5855 5855 5856 5857 5858 5859 5859 5860 5861
5854 5854 5853 5853 5853 5853 5852 5852 5851 5851 5850 5849 5849 5848 5848 5847 5847 5847 5847 5847 5847 5846 5846 5846 5846 5846 5846 5846 5846 5846 5846 5847 5847 5847 5848 5848 5849 5850 5851 5852 5853 5853 5854 5855 5856 5856 5857 5858 5859
5853 5853 5853 5853 5853 5852 5852 5851 5851 5850 5849 5849 5848 5847 5847 5846 5846 5846 5846 5846 5846 5846 5845 5845 5845 5845 5845 5844 5844 5845 5845 5845 5846 5846 5847 5847 5848 5848 5849 5850 5851 5851 5852 5853 5854 5854 5855 5856 5856
5853 5852 5852 5852 5852 5851 5851 5851 5850 5849 5849 5848 5847 5847 5846 5846 5845 5845 5845 5845 5845 5845 5844 5844 5844 5844 5844 5843 5843 5843 5844 5844 5844 5845 5845 5845 5846 5847 5847 5848 5849 5849 5850 5851 5851 5852 5852 5853 5854
5851 5851 5851 5851 5851 5850 5851 5850 5849 5848 5848 5847 5846 5846 5845 5845 5845 5844 5844 5844 5844 5844 5844 5843 5843 5843 5843 5842 5842 5842 5842 5843 5843 5843 5843 5844 5844 5845 5846 5846 5847 5847 5848 5848 5849 5849 5850 5850 5851
5850 5850 5850 5850 5849 5849 5851 5849 5848 5847 5847 5846 5845 5845 5844 5844 5844 5843 5843 5843 5843 5842 5842 5842 5842 5842 5841 5841 5841 5841 5841 5841 5841 5842 5842 5842 5843 5843 5844 5844 5844 5845 5845 5846 5846 5847 5847 5848 5849
5848 5848 5848 5848 5848 5848 5848 5848 5847 5846 5845 5845 5844 5844 5843 5843 5843 5842 5842 5841 5841 5841 5841 5841 5841 5841 5840 5840 5840 5840 5840 5840 5840 5840 5841 5841 5841 5841 5842 5842 5843 5843 5843 5843 5844 5844 5845 5845 5846
5847 5847 5846 5846 5846 5846 5846 5846 5845 5845 5844 5844 5843 5843 5842 5842 5841 5841 5841 5840 5840 5840 5840 5840 5840 5839 5839 5839 5839 5839 5839 5839 5839 5839 5839 5839 5839 5840 5840 5840 5841 5841 5841 5841 5842 5842 5842 5843 5843
5845 5845 5845 5845 5844 5844 5844 5844 5844 5843 5842 5842 5842 5841 5841 5840 5840 5840 5839 5839 5839 5839 5838 5838 5838 5838 5838 5838 5837 5837 5837 5837 5837 5837 5837 5838 5838 5838 5838 5838 5838 5839 5839 5839 5839 5840 5840 5840 5841
5843 5843 5843 5842 5842 5842 5842 5842 5842 5841 5841 5840 5840 5839 5839 5839 5838 5839 5838 5838 5838 5837 5837 5836 5836 5836 5836 5836 5836 5835 5835 5835 5835 5835 5836 5836 5836 5836 5836 5836 5836 5836 5837 5837 5837 5837 5837 5838 5838
5840 5840 5840 5840 5840 5840 5840 5840 5840 5840 5839 5839 5838 5838 5837 5837 5837 5837 5837 5836 5836 5836 5835 5835 5835 5835 5834 5834 5834 5833 5833 5833 5833 5834 5834 5834 5834 5834 5834 5834 5834 5834 5834 5834 5834 5835 5835 5835 5836
5837 5838 5838 5838 5838 5838 5838 5837 5837 5837 5837 5837 5836 5836 5835 5835 5835 5835 5835 5835 5834 5834 5834 5833 5833 5833 5832 5832 5832 5832 5831 5831 5831 5831 5831 5831 5831 5831 5831 5831 5831 5831 5831 5831 5831 5832 5832 5832 5833
5835 5835 5836 5836 5836 5836 5836 5836 5836 5835 5835 5835 5834 5834 5833 5833 5833 5832 5833 5832 5832 5832 5832 5831 5831 5830 5830 5830 5830 5830 5829 5829 5829 5829 5829 5829 5829 5829 5828 5828 5828 5828 5828 5828 5828 5828 5829 5829 5829
5833 5834 5833 5833 5833 5833 5834 5834 5833 5833 5833 5832 5832 5831 5831 5830 5830 5830 5830 5830 5829 5829 5829 5829 5828 5828 5828 5828 5828 5827 5827 5827 5826 5826 5826 5826 5826 5826 5826 5825 5825 5825 5824 5824 5824 5824 5825 5825 5825
5831 5832 5831 5831 5831 5831 5832 5831 5831 5830 5830 5830 5829 5828 5828 5827 5827 5827 5826 5826 5826 5826 5826 5826 5825 5825 5825 5825 5825 5825 5825 5824 5824 5823 5823 5823 5823 5823 5822 5822 5822 5821 5821 5821 5821 5820 5821 5821 5821
5828 5829 5830 5830 5829 5829 5829 5828 5828 5827 5827 5827 5826 5825 5825 5824 5824 5824 5823 5823 5823 5823 5823 5822 5822 5822 5822 5822 5822 5822 5821 5821 5821 5820 5820 5820 5820 5819 5819 5818 5818 5818 5817 5817 5817 5817 5817 5817 5817
5825 5825 5826 5826 5826 5826 5825 5826 5825 5824 5823 5822 5823 5822 5822 5821 5821 5820 5820 5820 5820 5819 5819 5819 5819 5819 5819 5819 5818 5818 5818 5818 5817 5817 5817 5816 5816 5815 5815 5814 5814 5814 5813 5813 5813 5813 5812 5812 5812
5823 5822 5823 5822 5822 5822 5823 5822 5821 5820 5819 5819 5818 5818 5818 5817 5817 5816 5816 5816 5816 5816 5815 5815 5815 5815 5815 5814 5814 5814 5814 5814 5814 5813 5813 5812 5812 5811 5811 5810 5809 5809 5809 5809 5809 5808 5808 5808 5807
5818 5819 5818 5818 5819 5819 5819 5820 5817 5816 5816 5814 5814 5814 5813 5813 5813 5812 5812 5811 5811 5811 5811 5811 5811 5811 5810 5810 5810 5810 5810 5810 5810 5809 5809 5808 5808 5807 5806 5805 5805 5805 5804 5804 5804 5803 5803 5803 5802
5813 5813 5814 5814 5814 5814 5814 5816 5813 5812 5811 5810 5809 5809 5809 5808 5808 5807 5807 5807 5807 5807 5806 5806 5806 5806 5806 5806 5806 5806 5806 5805 5805 5805 5804 5803 5803 5802 5801 5801 5800 5800 5799 5799 5798 5798 5798 5798 5797